Location: Kinloch
(38.7406°N, 90.3254°W)
Time: 15:54:36
(UTC+00:00)

Cosmos 2100 Rocket - Pass Details

Date: 13 February 2026
Orbit: 954 x 1001 km, 82.9° (Epoch: 9 March)

Event Time Altitude Azimuth Distance (km) Brightness Sun altitude
Rises 12:20:25 0° 191° (S) 3,707 7.0 -7.3°
Reaches altitude 10° 12:22:57 10° 193° (SSW) 2,762 6.4 -6.8°
Maximum altitude 12:29:17 73° 278° (W) 1,045 4.0 -5.6°
Drops below altitude 10° 12:35:39 10° 3° (N) 2,765 6.3 -4.4°
Sets 12:38:11 0° 5° (N) 3,712 7.0 -3.9°
